Temperature
18 18 18 18 18 18 18 18 18 18 18 18 18 18 18 18 18 18 18 18 18 18 18 18 18 18 17 17 17 17 17 17 17 17 17 17 17 17 16 16 17 16 16
18 18 18 18 18 18 18 18 18 18 18 18 18 18 18 18 18 18 18 18 18 18 18 18 18 18 17 17 17 17 17 17 17 17 17 17 17 16 16 16 16 16 16
18 18 18 18 18 18 18 18 18 18 18 18 18 18 18 18 18 18 18 18 18 18 18 18 18 17 17 17 17 17 17 17 17 17 17 17 16 16 16 16 16 16 16
18 18 18 18 18 18 18 18 18 18 18 18 18 18 18 18 18 18 18 18 18 18 18 18 18 17 17 17 17 17 17 17 17 17 17 16 16 16 16 16 16 16 16
18 18 18 18 18 18 18 18 18 18 18 18 19 19 19 18 18 18 18 18 18 18 18 18 18 17 17 17 17 17 17 17 17 17 17 16 16 16 16 16 16 16 16
18 18 18 18 18 18 18 18 18 18 18 18 19 19 19 19 19 19 19 18 18 18 18 18 18 17 17 17 17 17 17 17 17 17 17 17 16 16 16 16 16 16 16
19 18 18 18 18 18 18 18 18 18 18 19 19 19 19 19 19 19 19 19 18 18 18 18 18 17 17 17 17 17 17 17 17 17 17 17 16 16 16 16 16 16 16
19 19 19 18 18 18 18 18 18 18 18 18 18 19 19 19 19 19 19 19 18 18 18 18 18 17 17 17 17 17 17 17 17 17 17 17 16 16 16 16 16 16 16
19 19 19 19 18 18 18 18 18 18 18 18 18 18 19 19 19 19 19 19 19 18 18 18 17 17 17 17 17 17 17 17 17 17 17 16 16 16 16 16 16 16 15
19 18 18 18 18 18 18 18 18 18 18 18 18 18 19 19 18 18 19 19 19 18 18 18 17 17 17 17 17 17 17 17 17 16 16 16 16 16 16 16 15 15 15
19 19 18 18 18 18 18 18 18 18 18 18 18 18 18 18 18 18 18 18 18 18 18 18 18 17 17 17 17 17 17 17 16 16 16 16 16 16 15 15 15 15 15
19 19 18 18 18 18 18 18 18 18 18 18 18 18 18 18 18 18 18 18 18 18 18 18 18 17 17 17 17 17 16 16 16 16 16 16 16 15 15 15 15 15 15
19 19 18 18 18 18 18 18 18 18 18 18 18 18 18 18 18 18 18 18 18 18 18 18 18 17 17 17 17 17 16 16 16 16 16 16 15 15 15 15 15 15 15
19 19 19 18 18 18 18 18 18 18 18 18 18 18 18 18 17 17 17 17 17 17 18 18 18 17 17 17 17 16 16 16 16 16 16 15 15 15 15 15 15 15 15
19 19 19 18 18 18 18 18 18 17 17 17 17 17 17 17 17 17 17 17 17 17 17 17 17 17 17 16 16 16 16 16 16 16 15 15 15 15 15 15 15 15 15
18 18 18 18 18 18 18 18 18 17 17 17 17 17 17 17 17 17 17 17 17 17 16 17 17 17 16 16 16 16 16 16 16 15 15 15 15 15 15 15 15 15 15
18 18 18 18 18 18 18 17 17 17 17 17 17 17 17 17 17 17 16 16 16 16 16 16 16 16 16 16 16 16 16 16 15 15 15 15 15 15 15 15 15 14 14
17 17 17 17 17 17 17 17 17 17 17 16 16 16 16 16 16 16 16 16 16 16 16 16 16 16 16 16 16 15 15 15 15 15 15 15 15 15 15 15 14 14 14
17 17 17 17 17 17 17 17 17 16 16 16 16 16 16 16 16 16 16 15 15 15 15 15 15 16 15 15 15 15 15 15 15 15 15 15 15 15 15 14 14 14 14
17 17 17 17 17 17 17 16 16 16 16 16 16 16 15 15 15 15 15 15 15 15 15 15 15 15 15 15 15 15 15 15 15 15 15 15 14 14 14 14 14 14 14
17 17 17 17 16 16 16 16 16 16 16 15 15 15 15 15 15 15 15 15 15 14 14 14 14 14 14 14 14 14 14 14 14 14 14 14 14 14 14 14 14 14 14
16 16 16 16 16 16 16 16 16 16 15 15 15 15 15 15 15 15 15 14 14 14 14 14 14 14 14 14 14 14 14 13 14 14 14 14 14 14 14 14 14 14 13
16 16 16 16 16 16 16 16 15 15 15 15 14 14 14 14 14 14 14 14 14 14 14 14 13 14 14 14 13 13 13 13 13 14 13 13 13 13 13 13 13 13 13
16 16 16 16 16 16 15 15 15 15 15 15 14 14 14 14 14 14 14 14 14 14 14 14 14 14 13 13 13 13 13 13 13 13 13 13 13 13 13 13 13 13 13
16 16 15 15 15 15 15 15 15 15 15 14 14 14 14 14 14 14 14 14 14 14 14 14 14 14 14 13 13 13 13 13 13 13 13 13 13 13 13 13 13 13 13
15 15 15 15 15 15 15 15 15 15 14 14 14 14 14 14 14 14 14 14 14 14 14 14 14 13 14 13 13 13 12 12 12 12 13 13 13 13 12 13 13 13 12
Wind_Speed
3 3 3 2 2 2 2 2 2 2 2 2 1 1 1 2 3 4 7 12 11 10 9 8 8 7 7 6 6 6 6 7 8 8 9 10 10 10 10 9 9 9 8
4 3 2 2 2 2 2 2 1 2 2 1 1 1 2 2 4 4 6 8 10 10 10 8 8 7 6 6 6 6 5 6 7 7 7 9 9 10 10 9 9 9 9
4 3 2 2 2 2 2 2 1 1 1 1 2 2 2 2 2 4 5 6 8 9 10 9 8 7 6 6 5 5 5 6 6 7 7 8 9 9 9 9 9 9 9
3 2 2 3 2 1 1 2 1 0 0 0 0 1 2 2 2 3 4 5 6 6 8 9 8 7 6 6 5 5 5 5 6 7 8 9 10 10 10 10 9 9 8
2 1 2 2 1 1 1 1 2 0 0 0 1 2 2 2 2 2 3 5 5 6 7 9 9 9 7 6 6 5 5 5 5 7 8 9 10 10 10 11 11 10 9
2 1 1 1 1 1 1 2 1 1 1 1 1 0 1 2 1 2 2 2 4 5 5 7 7 7 8 7 6 6 6 6 6 6 8 9 10 10 11 11 11 11 10
2 1 2 2 1 2 1 1 1 1 1 0 1 1 1 2 2 2 2 2 2 2 4 6 6 5 6 7 7 6 6 6 6 6 6 7 8 9 10 11 11 11 10
1 1 1 1 1 1 1 1 1 1 1 1 1 1 1 1 2 2 2 2 2 2 2 4 4 5 5 5 6 7 7 6 5 5 5 6 7 8 9 10 10 10 10
1 1 1 1 1 0 1 1 1 1 2 2 1 1 1 1 1 1 2 2 2 2 2 3 4 4 4 5 5 6 7 6 6 5 5 5 6 7 8 9 9 10 9
1 1 1 1 1 1 0 1 0 2 2 2 1 1 1 0 1 1 1 1 2 2 2 1 2 3 4 4 5 5 7 7 6 6 5 5 5 6 6 8 8 8 8
1 1 1 1 1 1 0 1 1 2 2 3 2 2 1 1 2 1 2 2 2 1 1 1 1 2 4 4 4 5 7 7 7 6 6 6 6 5 5 6 7 7 7
2 1 1 1 1 1 1 1 2 2 2 3 3 3 2 1 1 1 2 2 2 2 1 1 2 2 3 4 4 5 6 6 6 6 6 6 5 5 5 6 6 6 6
1 1 0 0 1 1 1 1 2 2 2 3 3 3 2 2 1 1 2 3 3 2 1 1 2 3 3 4 5 6 7 7 6 6 6 5 5 5 6 6 7 7 7
1 2 1 0 0 1 1 1 2 2 1 2 3 3 2 3 2 1 2 2 3 3 2 2 1 1 2 4 6 7 6 8 7 7 7 6 6 6 6 6 6 6 6
2 2 1 1 1 1 1 2 1 2 1 2 3 3 2 2 2 2 2 2 2 3 3 2 1 0 1 3 6 5 4 7 8 8 8 8 8 7 7 7 7 7 7
3 2 2 2 2 1 1 1 2 2 1 2 2 2 2 3 3 3 2 2 2 3 3 2 2 1 1 1 4 3 3 7 9 9 10 10 10 9 9 8 8 8 8
2 2 2 2 2 1 1 2 2 2 2 2 3 2 2 2 3 4 3 3 2 2 4 4 3 2 1 1 2 3 4 5 6 10 11 11 11 11 10 10 9 9 8
1 1 1 2 2 2 2 2 3 3 2 2 3 3 3 3 3 3 3 3 3 3 3 5 4 2 2 2 3 4 3 4 4 8 11 12 12 12 11 11 11 10 10
1 1 1 2 2 2 2 2 2 2 3 3 3 2 3 3 3 3 3 3 3 4 3 4 5 3 3 2 2 3 4 3 4 5 9 11 12 12 12 12 12 11 11
1 2 1 2 1 2 2 2 2 2 2 2 3 3 3 3 3 4 3 3 3 4 4 4 4 4 3 3 2 2 3 2 3 3 4 6 9 11 12 13 13 12 12
2 1 1 2 2 1 2 3 3 2 2 2 2 2 2 3 3 3 3 3 4 4 4 4 4 3 3 3 3 3 3 3 4 3 2 3 4 5 7 10 12 13 13
1 1 1 1 2 2 4 4 2 2 2 2 3 3 2 2 2 3 3 4 4 5 4 4 4 4 4 3 3 4 4 4 4 2 2 3 3 3 4 5 9 12 13
1 1 1 1 1 2 3 3 3 2 2 2 3 3 4 4 3 3 4 4 5 6 6 5 5 5 5 3 3 4 4 5 6 3 2 4 3 3 3 5 8 11 12
0 0 1 0 0 2 3 3 3 2 2 2 3 3 2 3 4 4 4 4 4 4 5 4 4 5 5 4 3 4 5 5 5 4 3 4 3 3 4 3 7 10 11
1 1 1 1 1 1 2 3 3 3 2 3 2 2 2 2 3 4 3 4 5 5 5 5 6 6 6 7 5 3 4 4 5 4 2 2 3 3 3 2 4 7 9
2 2 1 1 1 2 2 3 3 3 3 2 2 1 1 2 2 3 3 4 5 6 6 6 5 5 5 5 6 4 4 5 4 3 2 2 2 2 2 2 2 3 4
Wind_Direction
71 72 71 66 82 113 131 141 143 146 151 171 180 120 101 111 112 129 145 163 168 170 174 179 184 189 195 202 211 213 215 211 205 202 203 205 207 209 211 210 207 205 205
72 74 72 65 59 89 96 93 114 142 136 149 150 128 137 117 127 141 153 169 176 178 181 182 184 187 193 199 205 209 212 202 200 199 201 205 208 210 211 212 213 212 211
77 77 69 71 59 88 101 110 63 114 140 161 163 167 146 145 149 147 158 168 175 184 184 186 187 187 192 197 200 208 209 209 202 203 208 208 209 209 208 210 212 216 216
88 61 66 71 59 77 92 116 111 72 85 175 200 180 149 155 191 170 157 162 163 171 183 190 184 186 191 193 194 204 211 209 207 209 213 214 214 214 214 214 214 217 217
95 74 73 64 92 74 47 68 97 55 287 175 226 193 169 165 188 179 157 162 157 162 171 180 186 190 192 191 192 196 201 202 208 218 222 221 218 218 219 218 219 218 220
90 73 81 71 54 77 47 42 37 326 275 284 297 52 173 159 183 175 178 147 150 164 158 160 175 190 192 190 190 196 200 204 211 222 228 226 222 220 219 219 220 218 220
82 64 41 47 60 75 55 43 10 315 279 314 338 336 232 191 192 163 182 142 123 139 139 149 159 162 173 190 195 198 203 208 213 223 230 225 222 221 218 219 222 221 221
91 88 84 66 63 79 45 333 310 308 319 341 297 311 303 250 280 178 163 157 161 170 175 154 148 147 159 163 183 200 205 209 211 218 225 223 217 218 219 219 220 220 222
117 72 56 52 21 126 167 247 286 292 294 292 297 328 333 321 306 198 216 172 173 183 187 169 156 152 163 154 157 188 200 207 212 216 218 217 217 218 219 217 219 219 220
129 141 122 68 329 323 109 281 191 298 289 293 292 274 283 22 271 302 290 226 209 195 189 186 175 159 145 139 135 160 190 200 210 216 216 215 213 217 216 208 212 216 218
148 138 153 162 232 273 209 304 348 314 314 324 321 308 314 300 267 258 292 310 288 237 188 200 201 161 150 140 148 147 173 187 199 212 217 218 217 219 216 210 216 218 222
150 152 183 195 227 256 252 260 271 292 301 309 314 314 316 314 308 301 302 299 299 284 210 193 193 180 157 147 154 151 161 171 183 197 208 214 214 215 216 217 220 219 224
95 85 12 177 260 263 258 265 259 276 285 298 299 302 311 297 292 298 298 297 303 301 286 207 193 170 163 144 147 150 164 173 180 186 197 204 209 214 220 222 224 225 228
50 62 35 46 318 293 298 296 287 270 272 287 293 306 305 306 317 286 265 282 297 294 292 284 204 156 152 145 154 163 168 180 188 195 204 210 212 213 220 224 223 225 229
47 56 16 9 352 332 331 323 300 303 324 290 299 299 284 299 296 285 279 270 267 289 291 290 301 185 122 138 154 167 165 191 197 203 208 211 212 212 217 217 221 224 226
33 28 9 8 11 360 334 314 303 298 286 283 270 290 320 307 316 303 285 284 274 271 284 289 281 252 197 223 169 178 195 195 206 212 211 213 213 213 214 217 221 223 226
12 351 344 342 335 343 341 323 307 327 328 314 307 318 316 319 327 320 318 313 308 297 285 294 290 282 258 244 181 211 205 196 202 215 215 214 213 212 212 215 222 225 227
295 316 330 328 320 342 326 318 318 346 336 341 343 347 335 324 331 328 329 326 316 300 284 290 288 289 264 244 215 228 233 225 215 218 214 214 210 211 212 216 221 224 226
287 302 309 306 323 332 326 322 323 330 335 337 339 337 330 336 333 324 324 328 322 318 309 298 297 286 274 262 239 244 253 238 241 226 210 212 212 213 215 218 220 221 222
252 274 304 322 318 321 332 336 322 313 318 323 325 321 333 337 335 323 319 327 319 312 309 304 298 296 293 292 281 271 277 267 268 258 223 212 214 217 220 221 220 219 219
243 260 295 307 307 310 348 350 314 310 332 330 321 322 332 341 346 320 315 322 323 314 310 307 305 309 310 318 306 293 286 280 266 258 239 229 210 213 219 226 223 220 219
258 281 279 300 345 338 359 9 1 336 343 331 321 314 297 322 329 299 286 291 288 288 293 294 299 297 297 302 300 296 290 289 284 262 245 251 223 230 218 214 208 212 218
235 277 299 45 60 357 355 357 340 308 317 312 308 306 306 327 345 327 295 283 279 272 264 269 281 286 289 292 290 294 297 291 279 271 266 265 246 245 236 234 211 212 215
194 205 242 248 255 331 338 329 318 276 275 287 295 309 322 340 338 330 319 316 303 295 277 263 268 280 290 291 273 272 281 291 285 272 244 252 251 250 260 222 217 211 213
239 235 238 235 255 306 302 300 299 274 273 277 283 307 315 315 329 332 317 309 308 304 299 290 268 267 275 284 282 283 282 286 289 282 261 252 259 263 251 238 216 214 215
242 253 260 242 243 262 278 288 283 273 278 282 277 256 18 339 316 319 309 302 295 297 307 306 300 281 266 264 262 251 265 273 277 287 280 258 266 271 274 244 201 193 213
Height
1509 1509 1509 1510 1511 1511 1512 1513 1514 1516 1516 1517 1518 1519 1519 1519 1518 1518 1518 1519 1520 1521 1521 1522 1522 1523 1523 1523 1524 1524 1524 1525 1526 1527 1529 1531 1532 1534 1535 1537 1538 1540 1541
1511 1511 1511 1512 1513 1513 1514 1515 1516 1517 1517 1518 1518 1519 1519 1519 1519 1519 1519 1519 1520 1520 1521 1522 1522 1522 1522 1522 1523 1523 1522 1522 1524 1526 1527 1528 1530 1531 1533 1534 1536 1537 1539
1513 1513 1513 1514 1514 1515 1515 1516 1517 1517 1518 1519 1519 1519 1519 1519 1519 1519 1519 1520 1520 1521 1521 1521 1522 1522 1522 1522 1521 1521 1521 1521 1522 1523 1524 1525 1527 1528 1530 1531 1533 1535 1536
1515 1515 1515 1516 1516 1516 1517 1517 1518 1518 1519 1519 1519 1519 1520 1519 1519 1520 1520 1520 1520 1520 1520 1521 1521 1521 1521 1520 1520 1520 1520 1520 1521 1522 1522 1523 1524 1525 1527 1529 1530 1532 1533
1517 1517 1517 1517 1517 1517 1518 1518 1519 1519 1519 1519 1519 1519 1519 1520 1520 1520 1520 1520 1520 1520 1520 1520 1520 1520 1520 1519 1519 1519 1519 1519 1519 1520 1520 1521 1521 1523 1524 1526 1527 1529 1530
1519 1518 1518 1518 1518 1519 1519 1519 1519 1519 1519 1519 1519 1519 1520 1520 1520 1520 1521 1521 1520 1520 1520 1519 1519 1519 1518 1518 1518 1517 1517 1517 1518 1518 1518 1518 1519 1520 1521 1523 1524 1526 1527
1520 1519 1519 1519 1519 1519 1519 1519 1519 1519 1520 1520 1519 1519 1519 1520 1520 1520 1520 1520 1520 1519 1519 1518 1518 1517 1517 1516 1516 1516 1516 1516 1516 1515 1515 1515 1516 1517 1518 1519 1521 1522 1524
1521 1521 1520 1520 1520 1519 1519 1519 1519 1519 1520 1520 1520 1519 1519 1521 1519 1519 1519 1519 1519 1518 1518 1517 1517 1516 1515 1515 1515 1515 1514 1514 1514 1513 1513 1512 1513 1513 1514 1515 1517 1519 1520
1521 1520 1520 1520 1520 1519 1519 1519 1519 1519 1519 1520 1520 1520 1520 1519 1519 1519 1518 1518 1517 1517 1517 1516 1516 1515 1514 1513 1513 1513 1513 1512 1512 1511 1511 1510 1510 1510 1510 1511 1513 1515 1517
1521 1520 1520 1519 1519 1519 1519 1519 1519 1519 1519 1519 1519 1519 1520 1519 1519 1518 1518 1517 1517 1516 1516 1515 1515 1513 1513 1511 1511 1510 1510 1510 1510 1509 1509 1508 1508 1507 1505 1506 1510 1512 1514
1520 1519 1519 1519 1519 1518 1518 1518 1518 1518 1518 1518 1518 1518 1518 1518 1518 1518 1517 1516 1516 1515 1514 1514 1513 1512 1511 1510 1509 1508 1508 1508 1508 1507 1507 1507 1506 1506 1505 1505 1508 1510 1511
1519 1519 1519 1518 1518 1517 1517 1517 1517 1517 1517 1517 1517 1517 1517 1517 1517 1516 1516 1515 1514 1514 1513 1512 1511 1510 1510 1509 1508 1507 1507 1506 1506 1506 1505 1505 1505 1504 1504 1505 1506 1507 1508
1519 1518 1518 1517 1517 1517 1516 1516 1516 1516 1516 1516 1515 1515 1515 1515 1515 1515 1514 1513 1512 1512 1511 1510 1509 1509 1508 1507 1506 1506 1505 1505 1504 1504 1504 1503 1503 1503 1503 1503 1504 1505 1506
1518 1517 1517 1516 1516 1516 1516 1516 1515 1515 1515 1514 1514 1514 1514 1513 1513 1513 1513 1512 1511 1510 1509 1508 1507 1507 1506 1505 1504 1504 1503 1503 1503 1502 1502 1501 1501 1501 1501 1501 1502 1502 1502
1517 1516 1516 1515 1515 1515 1515 1514 1514 1514 1513 1513 1512 1512 1512 1511 1511 1511 1511 1511 1510 1508 1507 1506 1506 1505 1504 1503 1502 1502 1501 1500 1500 1500 1499 1499 1499 1499 1498 1498 1498 1499 1499
1515 1515 1514 1514 1514 1514 1513 1513 1512 1512 1512 1511 1511 1510 1509 1509 1509 1509 1508 1508 1507 1507 1505 1503 1503 1503 1502 1501 1500 1499 1498 1498 1497 1497 1497 1496 1496 1496 1496 1496 1495 1495 1495
1514 1514 1513 1513 1513 1512 1512 1511 1511 1511 1510 1510 1509 1508 1507 1507 1506 1506 1505 1505 1504 1504 1502 1500 1500 1500 1499 1499 1498 1497 1496 1495 1494 1494 1494 1494 1493 1493 1493 1492 1492 1492 1492
1513 1513 1512 1512 1511 1511 1510 1510 1509 1509 1508 1508 1507 1506 1505 1505 1504 1503 1503 1502 1501 1501 1500 1498 1497 1497 1497 1495 1495 1494 1493 1492 1492 1491 1491 1490 1490 1490 1489 1489 1489 1489 1489
1512 1512 1511 1510 1510 1509 1509 1508 1507 1507 1506 1506 1505 1504 1504 1503 1502 1501 1500 1500 1499 1498 1497 1496 1494 1494 1494 1493 1492 1491 1491 1489 1488 1488 1488 1487 1487 1486 1486 1486 1485 1485 1485
1510 1510 1510 1509 1508 1508 1507 1506 1505 1505 1504 1504 1503 1502 1501 1501 1500 1499 1498 1497 1496 1496 1495 1494 1492 1491 1490 1490 1489 1488 1487 1486 1485 1485 1484 1484 1483 1483 1482 1482 1482 1482 1482
1509 1509 1508 1507 1507 1506 1505 1504 1504 1503 1503 1502 1501 1500 1499 1499 1498 1497 1496 1495 1494 1493 1492 1491 1489 1488 1487 1486 1485 1485 1483 1482 1482 1482 1481 1480 1479 1479 1478 1478 1478 1478 1478
1507 1506 1506 1505 1505 1504 1504 1503 1502 1501 1501 1500 1499 1498 1497 1496 1496 1495 1494 1493 1492 1491 1490 1489 1487 1486 1485 1484 1483 1482 1480 1479 1478 1478 1477 1476 1476 1475 1475 1475 1474 1474 1474
1504 1504 1503 1503 1502 1502 1502 1501 1500 1499 1498 1497 1497 1496 1496 1495 1493 1492 1491 1490 1489 1488 1487 1486 1484 1483 1482 1481 1480 1478 1477 1476 1475 1475 1474 1473 1472 1471 1471 1471 1471 1470 1470
1503 1502 1501 1501 1500 1500 1499 1499 1498 1497 1496 1495 1495 1494 1492 1491 1490 1489 1488 1487 1486 1485 1484 1482 1481 1480 1479 1478 1477 1476 1474 1473 1471 1471 1471 1470 1469 1468 1468 1467 1467 1466 1466
1501 1501 1500 1499 1498 1497 1497 1497 1496 1495 1494 1493 1492 1491 1490 1489 1488 1486 1485 1483 1482 1481 1481 1480 1478 1477 1476 1475 1474 1473 1471 1470 1468 1467 1468 1466 1465 1465 1464 1463 1463 1463 1462
1499 1499 1498 1497 1496 1495 1495 1494 1494 1493 1491 1490 1490 1489 1487 1486 1485 1484 1482 1481 1479 1478 1477 1476 1475 1474 1473 1472 1471 1470 1469 1467 1466 1464 1464 1463 1462 1461 1460 1460 1459 1459 1458